| time (UTC) | temp C | wind direction | speed KPH | gust KPH | rain 1hr cm | rain 24hr cm | rain mn cm | humidity % | barometer mb |
| 20260504140107 | 21 | 223 | 1.6 | 4.8 | 0.00 | 0.00 | 0.00 | 71 | 1016.6 |
| 20260504110116 | 13 | 0 | 0.0 | 0.0 | 0.00 | 0.00 | 0.00 | 87 | 1016.4 |
| 20260504100103 | 13 | 0 | 0.0 | 0.0 | 0.00 | 0.00 | 0.00 | 86 | 1016.6 |
| 20260504090117 | 13 | 0 | 0.0 | 0.0 | 0.00 | 0.00 | 0.00 | 85 | 1017.0 |
| 20260504081608 | 14 | 0 | 0.0 | 0.0 | 0.00 | 0.00 | 0.00 | 82 | 1017.5 |
| 20260504080106 | 15 | 0 | 0.0 | 0.0 | 0.00 | 0.00 | 0.00 | 82 | 1017.6 |
| 20260504044601 | 16 | 163 | 0.0 | 3.2 | 0.00 | 0.00 | 0.00 | 73 | 1019.4 |
| 20260504043055 | 16 | 0 | 0.0 | 3.2 | 0.00 | 0.00 | 0.00 | 75 | 1019.5 |
| 20260504041554 | 17 | 0 | 0.0 | 3.2 | 0.00 | 0.00 | 0.00 | 70 | 1019.4 |
| 20260504040106 | 17 | 159 | 0.0 | 3.2 | 0.00 | 0.00 | 0.00 | 69 | 1019.3 |
| 20260504034603 | 17 | 0 | 0.0 | 3.2 | 0.00 | 0.00 | 0.00 | 67 | 1019.6 |
| 20260504033108 | 17 | 161 | 0.0 | 3.2 | 0.00 | 0.00 | 0.00 | 67 | 1019.5 |
| 20260504031553 | 18 | 154 | 0.0 | 3.2 | 0.00 | 0.00 | 0.00 | 66 | 1019.4 |
| 20260504030055 | 18 | 177 | 0.0 | 3.2 | 0.00 | 0.00 | 0.00 | 65 | 1019.3 |
| 20260504024604 | 18 | 174 | 0.0 | 3.2 | 0.00 | 0.00 | 0.00 | 65 | 1019.4 |
| 20260504023055 | 18 | 191 | 1.6 | 3.2 | 0.00 | 0.00 | 0.00 | 63 | 1019.3 |
| 20260504021555 | 18 | 202 | 0.0 | 3.2 | 0.00 | 0.00 | 0.00 | 63 | 1019.2 |
| 20260504020053 | 19 | 163 | 0.0 | 3.2 | 0.00 | 0.00 | 0.00 | 62 | 1019.3 |
| 20260504014554 | 20 | 194 | 1.6 | 6.4 | 0.00 | 0.00 | 0.00 | 60 | 1019.3 |
| 20260504013054 | 20 | 189 | 1.6 | 3.2 | 0.00 | 0.00 | 0.00 | 59 | 1019.4 |
| 20260504011554 | 20 | 184 | 3.2 | 6.4 | 0.00 | 0.00 | 0.00 | 57 | 1019.2 |
| 20260504010057 | 21 | 209 | 0.0 | 4.8 | 0.00 | 0.00 | 0.00 | 55 | 1019.2 |
| 20260504004552 | 21 | 185 | 1.6 | 6.4 | 0.00 | 0.00 | 0.00 | 53 | 1019.1 |
| 20260504003054 | 22 | 138 | 1.6 | 8.0 | 0.00 | 0.00 | 0.00 | 51 | 1019.0 |
| 20260504001611 | 22 | 213 | 3.2 | 8.0 | 0.00 | 0.00 | 0.00 | 48 | 1019.1 |
| 20260504000056 | 23 | 167 | 3.2 | 9.7 | 0.00 | 0.00 | 0.00 | 46 | 1019.2 |
| 20260503234553 | 23 | 120 | 3.2 | 14.5 | 0.00 | 0.00 | 0.00 | 44 | 1019.3 |
| 20260503233057 | 24 | 168 | 4.8 | 19.3 | 0.00 | 0.00 | 0.00 | 45 | 1019.5 |
| 20260503231555 | 24 | 205 | 4.8 | 14.5 | 0.00 | 0.00 | 0.00 | 42 | 1019.4 |
| 20260503230053 | 25 | 207 | 3.2 | 8.0 | 0.00 | 0.00 | 0.00 | 41 | 1019.6 |
| 20260503224553 | 25 | 217 | 3.2 | 11.3 | 0.00 | 0.00 | 0.00 | 43 | 1019.6 |
| 20260503223051 | 25 | 180 | 3.2 | 8.0 | 0.00 | 0.00 | 0.00 | 40 | 1019.9 |
| 20260503221552 | 25 | 238 | 3.2 | 11.3 | 0.00 | 0.00 | 0.00 | 41 | 1019.8 |
| 20260503220109 | 25 | 203 | 1.6 | 9.7 | 0.00 | 0.00 | 0.00 | 42 | 1019.9 |
| 20260503214554 | 25 | 211 | 4.8 | 12.9 | 0.00 | 0.00 | 0.00 | 41 | 1020.1 |
| 20260503213055 | 26 | 126 | 3.2 | 8.0 | 0.00 | 0.00 | 0.00 | 40 | 1020.1 |
| 20260503211605 | 26 | 294 | 4.8 | 12.9 | 0.00 | 0.00 | 0.00 | 39 | 1020.3 |
| 20260503210057 | 25 | 221 | 1.6 | 8.0 | 0.00 | 0.00 | 0.00 | 40 | 1020.4 |
| 20260503204557 | 25 | 340 | 1.6 | 9.7 | 0.00 | 0.00 | 0.00 | 40 | 1020.5 |
| 20260503203053 | 26 | 45 | 3.2 | 9.7 | 0.00 | 0.00 | 0.00 | 40 | 1020.9 |
| 20260503201555 | 26 | 188 | 4.8 | 17.7 | 0.00 | 0.00 | 0.00 | 34 | 1021.3 |
| 20260503200055 | 26 | 290 | 3.2 | 14.5 | 0.00 | 0.00 | 0.00 | 40 | 1021.5 |
| 20260503194558 | 26 | 63 | 1.6 | 8.0 | 0.00 | 0.00 | 0.00 | 36 | 1021.6 |
| 20260503193120 | 26 | 68 | 4.8 | 14.5 | 0.00 | 0.00 | 0.00 | 37 | 1021.8 |
| 20260503191600 | 25 | 352 | 3.2 | 8.0 | 0.00 | 0.00 | 0.00 | 40 | 1022.1 |
| 20260503190055 | 26 | 28 | 4.8 | 14.5 | 0.00 | 0.00 | 0.00 | 36 | 1022.4 |
| 20260503184557 | 25 | 337 | 3.2 | 11.3 | 0.00 | 0.00 | 0.00 | 37 | 1022.5 |
| 20260503183101 | 25 | 179 | 1.6 | 6.4 | 0.00 | 0.00 | 0.00 | 37 | 1022.7 |
| 20260503181620 | 26 | 30 | 1.6 | 12.9 | 0.00 | 0.00 | 0.00 | 36 | 1023.0 |
| 20260503180126 | 26 | 71 | 1.6 | 4.8 | 0.00 | 0.00 | 0.00 | 38 | 1023.1 |
| 20260503174557 | 25 | 244 | 3.2 | 9.7 | 0.00 | 0.00 | 0.00 | 39 | 1023.4 |
| 20260503173057 | 25 | 108 | 1.6 | 16.1 | 0.00 | 0.00 | 0.00 | 38 | 1023.6 |
| 20260503171554 | 25 | 59 | 1.6 | 6.4 | 0.00 | 0.00 | 0.00 | 40 | 1023.7 |